Weslaco, TX

2:17 PM CDT on July 28, 2016 (GMT -0500)
Weslaco

Weather History for KT65 - January, 2013

Change the Weather History Date:

Thursday, January 3, 2013

  Actual Average (KMFE) Record (KMFE)
Temperature  
Mean Temperature 46 °F 60 °F  
Max Temperature 49 °F 70 °F 89 °F (1982)
Min Temperature 42 °F 50 °F 24 °F (1979)
Degree Days  
Heating Degree Days 20 7  
Month to date heating degree days 21  
Since 1 July heating degree days 258  
Cooling Degree Days 0 2  
Month to date cooling degree days 6  
Year to date cooling degree days 6  
Moisture  
Dew Point 37 °F    
Average Humidity 73    
Maximum Humidity 87    
Minimum Humidity 59    
Precipitation  
Precipitation 0.07 in 0.03 in 0.28 in (2007)
Month to date precipitation 0.09  
Year to date precipitation 0.09  
Sea Level Pressure  
Sea Level Pressure 30.33 in    
Wind  
Wind Speed 9 mph (North)    
Max Wind Speed 16 mph    
Max Gust Speed 18 mph    
Visibility 9 miles    
Events      
T = Trace of Precipitation, MM = Missing Value Source: NWS Daily Summary

Daily Weather History Graph

Daily Weather History Graph

Search for Another Location

Airport or City:

Trip Planner

Search our weather history database for the weather conditions in past years. The results will help you decide how hot, cold, wet, or windy it might be!

Date:

Astronomy

Jan. 03, 2013 Rise Set
Actual Time 7:20 AM CST 5:53 PM CST
Civil Twilight 6:54 AM CST 6:18 PM CST
Nautical Twilight 6:26 AM CST 6:47 PM CST
Astronomical Twilight 5:58 AM CST 7:15 PM CST
Moon 11:49 PM CST (1/3) 11:09 AM CST (1/3)
Length of Visible Light 11h 23m
Length of Day
10h 33m
Waning Gibbous, 65% of the Moon is Illuminated
Jan 3
Waning Gibbous
Jan 4
Last Quarter
Jan 11
New
Jan 18
First Quarter
Jan 26
Full

Hourly Weather History & Observations

Time (CST) Temp. Windchill Dew Point Humidity Pressure Visibility Wind Dir Wind Speed Gust Speed Precip Events Conditions
12:15 AM 42.3 °F 38.6 °F 38.7 °F 87% 30.29 in 10.0 mi North 5.8 mph - N/A   Overcast
12:35 AM 42.3 °F 37.9 °F 38.7 °F 87% 30.29 in 7.0 mi NNW 6.9 mph - N/A   Overcast
12:55 AM 42.1 °F 36.1 °F 38.3 °F 86% 30.28 in 7.0 mi North 10.4 mph - N/A   Overcast
1:15 AM 42.1 °F 36.6 °F 38.3 °F 86% 30.28 in 7.0 mi North 9.2 mph - N/A   Overcast
1:35 AM 42.3 °F 37.3 °F 38.3 °F 86% 30.28 in 7.0 mi North 8.1 mph - N/A   Overcast
1:55 AM 42.3 °F 37.3 °F 38.1 °F 85% 30.28 in 7.0 mi North 8.1 mph - N/A   Overcast
2:15 AM 42.4 °F 38.1 °F 37.9 °F 84% 30.28 in 10.0 mi North 6.9 mph - N/A   Overcast
2:35 AM 42.8 °F 38.0 °F 37.6 °F 82% 30.28 in 10.0 mi North 8.1 mph - N/A   Overcast
2:55 AM 42.8 °F 38.0 °F 37.4 °F 81% 30.28 in 10.0 mi North 8.1 mph - N/A   Overcast
3:15 AM 42.8 °F 37.5 °F 37.2 °F 81% 30.28 in 10.0 mi North 9.2 mph - N/A   Overcast
3:35 AM 42.8 °F 37.5 °F 37.0 °F 80% 30.29 in 10.0 mi North 9.2 mph - N/A   Overcast
3:55 AM 42.8 °F 38.0 °F 36.9 °F 80% 30.28 in 10.0 mi North 8.1 mph 16.1 mph N/A   Overcast
4:15 AM 42.8 °F 38.6 °F 37.2 °F 81% 30.29 in 10.0 mi North 6.9 mph - N/A   Overcast
4:35 AM 42.8 °F 38.0 °F 36.9 °F 80% 30.28 in 10.0 mi North 8.1 mph - N/A   Overcast
4:55 AM 42.8 °F 38.0 °F 37.0 °F 80% 30.29 in 10.0 mi North 8.1 mph - N/A   Overcast
5:15 AM 42.8 °F 37.5 °F 36.9 °F 80% 30.28 in 10.0 mi North 9.2 mph 16.1 mph N/A   Overcast
5:35 AM 42.8 °F 38.0 °F 37.4 °F 81% 30.28 in 10.0 mi North 8.1 mph - N/A   Overcast
5:55 AM 42.8 °F 38.0 °F 37.4 °F 81% 30.29 in 10.0 mi North 8.1 mph - N/A   Overcast
6:15 AM 42.8 °F 38.0 °F 37.4 °F 81% 30.30 in 10.0 mi North 8.1 mph - N/A   Overcast
6:35 AM 42.6 °F 38.4 °F 37.6 °F 82% 30.31 in 7.0 mi North 6.9 mph 16.1 mph N/A   Light Drizzle
6:55 AM 42.1 °F 37.1 °F 37.8 °F 85% 30.31 in 5.0 mi North 8.1 mph - N/A   Light Drizzle
7:35 AM 42.6 °F 37.8 °F 37.4 °F 82% 30.33 in 7.0 mi North 8.1 mph - N/A   Overcast
7:55 AM 43.0 °F 37.7 °F 36.7 °F 78% 30.33 in 10.0 mi North 9.2 mph - N/A   Overcast
8:15 AM 43.2 °F 38.4 °F 36.7 °F 78% 30.35 in 10.0 mi North 8.1 mph - N/A   Overcast
8:35 AM 43.2 °F 38.4 °F 36.9 °F 78% 30.35 in 7.0 mi North 8.1 mph - N/A   Overcast
8:55 AM 43.5 °F 37.9 °F 36.9 °F 77% 30.36 in 10.0 mi North 10.4 mph - N/A   Overcast
9:15 AM 44.1 °F 38.6 °F 36.9 °F 76% 30.36 in 10.0 mi NNW 10.4 mph - N/A   Overcast
9:35 AM 44.2 °F 38.8 °F 36.7 °F 75% 30.37 in 10.0 mi NNW 10.4 mph - N/A   Overcast
9:55 AM 44.1 °F 39.0 °F 37.6 °F 78% 30.37 in 7.0 mi NNW 9.2 mph - N/A   Overcast
10:15 AM 44.6 °F 38.8 °F 37.4 °F 76% 30.37 in 10.0 mi North 11.5 mph - N/A   Overcast
10:35 AM 45.0 °F 39.7 °F 37.8 °F 76% 30.37 in 10.0 mi NNW 10.4 mph 16.1 mph N/A   Overcast
10:55 AM 45.1 °F 39.1 °F 38.3 °F 77% 30.38 in 7.0 mi NNW 12.7 mph - N/A   Overcast
11:15 AM 44.8 °F 38.3 °F 38.7 °F 79% 30.38 in 5.0 mi NNW 13.8 mph - N/A   Haze
11:35 AM 44.2 °F 38.0 °F 39.9 °F 85% 30.37 in 2.0 mi NNW 12.7 mph - N/A   Drizzle
11:55 AM 44.1 °F 38.1 °F 40.1 °F 86% 30.37 in 3.0 mi NNW 11.5 mph - N/A   Light Drizzle
12:15 PM 44.6 °F 39.2 °F 39.7 °F 83% 30.36 in 3.0 mi NNW 10.4 mph - N/A   Light Drizzle
12:35 PM 44.8 °F 38.7 °F 39.7 °F 82% 30.34 in 5.0 mi NNW 12.7 mph - N/A   Haze
12:55 PM 45.9 °F 40.0 °F 39.2 °F 78% 30.33 in 7.0 mi North 12.7 mph - N/A   Overcast
1:15 PM 46.0 °F 39.6 °F 39.6 °F 78% 30.33 in 7.0 mi North 15.0 mph 18.4 mph N/A   Overcast
1:35 PM 46.0 °F 39.3 °F 38.1 °F 74% 30.32 in 7.0 mi North 16.1 mph - N/A   Overcast
1:55 PM 46.4 °F 40.4 °F 38.3 °F 73% 30.32 in 7.0 mi North 13.8 mph - N/A   Overcast
2:15 PM 46.6 °F - 38.1 °F 72% 30.32 in 10.0 mi NNW 11.5 mph 16.1 mph N/A   Overcast
2:35 PM 46.8 °F - 37.8 °F 71% 30.32 in 10.0 mi North 11.5 mph - N/A   Overcast
2:55 PM 47.8 °F - 37.8 °F 68% 30.32 in 10.0 mi North 9.2 mph - N/A   Overcast
3:15 PM 48.4 °F - 36.5 °F 64% 30.31 in 10.0 mi North 12.7 mph 18.4 mph N/A   Overcast
3:35 PM 48.7 °F - 36.1 °F 62% 30.32 in 10.0 mi North 15.0 mph 18.4 mph N/A   Overcast
3:55 PM 49.1 °F - 36.3 °F 61% 30.32 in 10.0 mi North 9.2 mph - N/A   Overcast
4:15 PM 49.1 °F - 35.6 °F 60% 30.33 in 10.0 mi North 11.5 mph 17.3 mph N/A   Overcast
4:35 PM 48.7 °F - 35.6 °F 60% 30.33 in 10.0 mi North 11.5 mph - N/A   Overcast
4:55 PM 48.4 °F - 35.1 °F 60% 30.34 in 10.0 mi North 11.5 mph 17.3 mph N/A   Overcast
5:15 PM 48.4 °F - 34.9 °F 60% 30.35 in 10.0 mi North 11.5 mph 16.1 mph N/A   Overcast
5:35 PM 48.0 °F - 34.7 °F 60% 30.35 in 10.0 mi North 9.2 mph - N/A   Overcast
6:15 PM 47.7 °F - 34.0 °F 59% 30.36 in 10.0 mi North 11.5 mph - N/A   Overcast
6:35 PM 47.5 °F - 34.5 °F 61% 30.37 in 10.0 mi North 8.1 mph - N/A   Overcast
6:55 PM 47.5 °F - 34.5 °F 61% 30.37 in 10.0 mi North 9.2 mph - N/A   Overcast
7:15 PM 47.5 °F - 34.0 °F 59% 30.38 in 10.0 mi North 8.1 mph - N/A   Overcast
7:35 PM 47.5 °F - 34.0 °F 59% 30.38 in 10.0 mi North 8.1 mph - N/A   Overcast
7:55 PM 47.3 °F - 34.0 °F 60% 30.38 in 10.0 mi North 8.1 mph - N/A   Overcast
8:15 PM 47.5 °F - 33.8 °F 59% 30.38 in 10.0 mi North 6.9 mph - N/A   Overcast
8:35 PM 47.5 °F - 34.0 °F 59% 30.38 in 10.0 mi NNW 8.1 mph - N/A   Overcast
8:55 PM 47.5 °F - 33.8 °F 59% 30.38 in 10.0 mi North 6.9 mph - N/A   Overcast
9:15 PM 47.5 °F - 33.8 °F 59% 30.38 in 10.0 mi NNW 8.1 mph - N/A   Overcast
9:35 PM 47.3 °F - 34.5 °F 61% 30.38 in 10.0 mi NNW 8.1 mph - N/A   Overcast
9:55 PM 47.1 °F - 34.9 °F 62% 30.37 in 10.0 mi NNW 8.1 mph - N/A   Overcast
10:15 PM 47.1 °F - 34.9 °F 62% 30.37 in 10.0 mi NNW 6.9 mph - N/A   Overcast
10:35 PM 47.1 °F - 34.9 °F 62% 30.37 in 10.0 mi NNW 5.8 mph - N/A   Overcast
10:55 PM 47.3 °F - 34.7 °F 62% 30.36 in 10.0 mi NNW 6.9 mph - N/A   Overcast
11:15 PM 47.3 °F - 34.7 °F 62% 30.35 in 10.0 mi NNW 8.1 mph - N/A   Overcast
11:35 PM 47.3 °F - 34.3 °F 61% 30.36 in 10.0 mi NW 8.1 mph - N/A   Overcast
11:55 PM 47.1 °F - 34.2 °F 61% 30.36 in 10.0 mi NNW 9.2 mph - N/A   Overcast